User: anonymous   Login
Location: Ellerstadt
(49.4644°N, 8.2615°E)
Time: 10:15:40
(UTC+00:00)
Language:

Cosmos 2333 Rocket - Orbit

View from above orbital plane
View from above orbital plane
View from above satellite
View from above satellite

Ground track
Ground track

The orbit data is extracted from the following two-line orbital elements,

1 24298U 96051B   21133.45631560 -.00000184  00000-0 -73005-4 0  9990
2 24298  70.8291 294.7574 0018080 227.3092 132.6506 14.12447584272952
Epoch (UTC): 13 May 2021 10:57:05
Eccentricity: 0.0018080
inclination: 70.8291°
perigee height: 838 km
apogee height: 864 km
right ascension of ascending node: 294.7574°
argument of perigee: 227.3092°
revolutions per day: 14.12447584
mean anomaly at epoch: 132.6506°
orbit number at epoch: 27295

The dashed part of the orbit path shows where the satellite is in the earth's shadow,  

DLR